Regional Weather Roundup
Issued by NWS

Home | Current Version | Previous Version | Text Only | Print | Product List | Glossary On
Versions: 1 2 3 4 5 6 7 8 9 10 11 12 13 14 15 16 17 18 19 20 21 22 23 24 25 26 27 28 29 30 31 32 33 34 35 36 37 38 39 40 41 42 43 44 45 46 47 48 49 50
000
ASUS43 KLSX 111307
RWRMO

WEATHER SUMMARY FOR MISSOURI
NATIONAL WEATHER SERVICE SPRINGFIELD MO
700 AM CST SUN DEC 11 2016

NOTE: "FAIR" INDICATES FEW OR NO CLOUDS BELOW 12,000 FEET WITH NO
       SIGNIFICANT WEATHER AND/OR OBSTRUCTIONS TO VISIBILITY.
       CURRENT SKY AND/OR WEATHER CONDITIONS ARE NOT AVAILABLE FOR
       CHILLICOTHE AND FARMINGTON.

MOZ001>031-035>038-043-044-053-054-111400-
...NORTHERN AND WESTERN MISSOURI...

CITY           SKY/WX    TMP DP  RH WIND       PRES   REMARKS
KANSAS CTY INT CLOUDY    41  28  60 S8        29.76R
KANSAS C DTWN  CLOUDY    43  30  60 S5        29.78R
LEE`S SUMMIT   CLOUDY    42  29  59 S9        29.78S
ST JOSEPH      CLOUDY    38  25  59 S3        29.77S
CHILLICOTHE      N/A     39  24  55 SE8       29.82F
KIRKSVILLE     CLOUDY    35  22  58 SE9       29.84F WCI  28

$$
MOZ066>068-077>081-088>096-101>105-111400-
...SOUTHWEST MISSOURI...

CITY           SKY/WX    TMP DP  RH WIND       PRES   REMARKS
SPRINGFIELD    CLOUDY    44  26  49 S16       29.83F
JOPLIN         CLOUDY    48  36  63 S17       29.81S
BRANSON        CLOUDY    45  28  53 SE9       29.91S

$$
MOZ032>034-039>042-045>050-055>058-069>072-111400-
...CENTRAL MISSOURI...

CITY           SKY/WX    TMP DP  RH WIND       PRES   REMARKS
COLUMBIA       CLOUDY    40  23  50 SE12      29.88F
JEFFERSON CITY CLOUDY    42  23  46 SE7       29.90F
ROLLA          CLOUDY    42  22  44 S17       29.89F
SEDALIA        CLOUDY    43  27  53 S15       29.84F
WHITEMAN AFB   CLOUDY    42  28  57 S12       29.80F
WARRENSBURG    CLOUDY    41  28  60 SE10      29.80F
OSAGE BEACH    CLOUDY    42  23  46 S15G23    29.89F

$$
MOZ051-052-059>065-111400-
...EAST CENTRAL MISSOURI...

CITY           SKY/WX    TMP DP  RH WIND       PRES   REMARKS
ST LOUIS INTL  CLOUDY    43  17  35 S12       29.98F
SPIRIT OF STL  CLOUDY    44  18  35 S5        29.97F
ST CHARLES     CLOUDY    38  23  55 SE8       29.98F

$$
MOZ072>076-082>087-097>100-106>115-111400-
...SOUTH CENTRAL AND SOUTHEAST MISSOURI...

CITY           SKY/WX    TMP DP  RH WIND       PRES   REMARKS
CAPE GIRARDEAU CLOUDY    40  21  46 S13       30.11F
FARMINGTON     CLOUDY    40  20  44 S18       30.01F
POPLAR BLUFF   CLOUDY    41  24  51 S12G20    30.09F
WEST PLAINS    CLOUDY    41  22  46 S14       29.98S

$$


USA.gov is the U.S. government's official web portal to all federal, state and local government web resources and services.